VCV79 SVVG-SVMI

Flight info

Callsign VCV79
Flight time 0h 52m
Altitude 33000
Route GESKI1 VRA UW8 BRM UW40 PBL ALDAK1
Aircraft E190/M-SDE3GILORVW/S

Departure

Time 2026-05-07 01:37
Airport Juan Pablo Pérez Alfonso Airport (SVVG)

Arrival

Time 2026-05-07 02:30
Airport Maiquetía Simón Bolívar International Airport (SVMI)
Time Latitude Longitude Altitude Speed Heading
2026-05-07 01:15 8.62333 -71.66200 264 ft 0 kts 171°
2026-05-07 01:30 8.62334 -71.66200 257 ft 2 kts 171°
2026-05-07 01:30 8.62360 -71.66203 266 ft 4 kts 168°
2026-05-07 01:30 8.62386 -71.66210 263 ft 4 kts 155°
2026-05-07 01:31 8.62403 -71.66218 264 ft 0 kts 153°
2026-05-07 01:34 8.62402 -71.66218 262 ft 1 kts 153°
2026-05-07 01:34 8.62396 -71.66197 262 ft 5 kts 77°
2026-05-07 01:35 8.62414 -71.66143 261 ft 12 kts 78°
2026-05-07 01:35 8.62428 -71.66045 258 ft 16 kts 94°
2026-05-07 01:35 8.62430 -71.65948 263 ft 13 kts 66°
2026-05-07 01:35 8.62496 -71.65902 261 ft 11 kts 356°
2026-05-07 01:36 8.62575 -71.65916 258 ft 12 kts 334°
2026-05-07 01:36 8.62591 -71.65995 262 ft 14 kts 263°
2026-05-07 01:36 8.62558 -71.66235 260 ft 65 kts 262°
2026-05-07 01:36 8.62464 -71.66911 261 ft 127 kts 261°
2026-05-07 01:37 8.62324 -71.67959 338 ft 172 kts 263°
2026-05-07 01:37 8.62194 -71.69202 1036 ft 179 kts 264°
2026-05-07 01:37 8.62063 -71.70523 1753 ft 200 kts 262°
2026-05-07 01:37 8.61848 -71.71989 2461 ft 223 kts 264°
2026-05-07 01:38 8.62178 -71.73595 3153 ft 245 kts 301°
2026-05-07 01:38 8.63378 -71.74935 3911 ft 272 kts 330°
2026-05-07 01:38 8.65196 -71.75521 5045 ft 279 kts 356°
2026-05-07 01:38 8.66478 -71.75420 5851 ft 282 kts 15°
2026-05-07 01:39 8.68720 -71.74106 7388 ft 285 kts 41°
2026-05-07 01:39 8.70208 -71.72765 8526 ft 287 kts 43°
2026-05-07 01:39 8.71206 -71.71875 9282 ft 289 kts 43°
2026-05-07 01:39 8.73263 -71.70042 10526 ft 308 kts 42°
2026-05-07 01:40 8.74896 -71.68585 11332 ft 319 kts 44°
2026-05-07 01:40 8.75994 -71.67557 11876 ft 328 kts 45°
2026-05-07 01:40 8.77678 -71.65935 12686 ft 340 kts 46°
2026-05-07 01:40 8.79396 -71.64239 13604 ft 347 kts 46°
2026-05-07 01:41 8.81118 -71.62499 14539 ft 352 kts 47°
2026-05-07 01:41 8.82833 -71.60718 15507 ft 356 kts 47°
2026-05-07 01:41 8.84544 -71.58885 16466 ft 360 kts 47°
2026-05-07 01:41 8.86223 -71.57028 17394 ft 363 kts 48°
2026-05-07 01:42 8.87909 -71.55095 18259 ft 367 kts 49°
2026-05-07 01:42 8.89578 -71.53116 18951 ft 372 kts 50°
2026-05-07 01:42 8.91031 -71.50928 19604 ft 377 kts 59°
2026-05-07 01:42 8.92286 -71.48620 20225 ft 382 kts 60°
2026-05-07 01:43 8.93597 -71.46219 20858 ft 387 kts 60°
2026-05-07 01:43 8.94892 -71.43843 21456 ft 392 kts 60°
2026-05-07 01:43 8.96216 -71.41404 22048 ft 397 kts 60°
2026-05-07 01:43 8.97558 -71.38937 22623 ft 402 kts 60°
2026-05-07 01:44 8.98917 -71.36438 23181 ft 407 kts 60°
2026-05-07 01:44 9.00289 -71.33913 23702 ft 412 kts 60°
2026-05-07 01:44 9.01674 -71.31356 24151 ft 416 kts 60°
2026-05-07 01:44 9.03076 -71.28775 24584 ft 420 kts 60°
2026-05-07 01:45 9.04473 -71.26204 24996 ft 424 kts 60°
2026-05-07 01:45 9.05902 -71.23566 25410 ft 427 kts 60°
2026-05-07 01:45 9.07339 -71.20913 25790 ft 431 kts 60°
2026-05-07 01:45 9.08791 -71.18232 26181 ft 435 kts 60°
2026-05-07 01:46 9.10232 -71.15571 26556 ft 438 kts 60°
2026-05-07 01:46 9.11706 -71.12848 26929 ft 442 kts 60°
2026-05-07 01:46 9.13190 -71.10107 27296 ft 445 kts 60°
2026-05-07 01:46 9.14687 -71.07340 27665 ft 449 kts 60°
2026-05-07 01:47 9.16201 -71.04546 28015 ft 453 kts 60°
2026-05-07 01:47 9.17701 -71.01770 28338 ft 456 kts 60°
2026-05-07 01:47 9.19229 -70.98943 28658 ft 460 kts 60°
2026-05-07 01:47 9.20776 -70.96083 28968 ft 463 kts 60°
2026-05-07 01:48 9.22326 -70.93214 29376 ft 464 kts 60°
2026-05-07 01:48 9.23874 -70.90348 29818 ft 464 kts 60°
2026-05-07 01:48 9.25406 -70.87512 30195 ft 463 kts 60°
2026-05-07 01:48 9.26955 -70.84643 30562 ft 463 kts 60°
2026-05-07 01:49 9.28496 -70.81788 30920 ft 462 kts 60°
2026-05-07 01:49 9.30039 -70.78929 31285 ft 461 kts 60°
2026-05-07 01:49 9.31576 -70.76081 31656 ft 460 kts 60°
2026-05-07 01:49 9.33107 -70.73240 32022 ft 459 kts 60°
2026-05-07 01:50 9.34638 -70.70402 32375 ft 458 kts 60°
2026-05-07 01:50 9.36150 -70.67597 32711 ft 458 kts 61°
2026-05-07 01:50 9.37675 -70.64766 33076 ft 455 kts 60°
2026-05-07 01:50 9.39174 -70.61985 33046 ft 444 kts 60°
2026-05-07 01:51 9.40631 -70.59279 33063 ft 432 kts 60°
2026-05-07 01:51 9.43463 -70.53985 33047 ft 424 kts 62°
2026-05-07 01:52 9.46175 -70.48684 33048 ft 423 kts 62°
2026-05-07 01:52 9.48877 -70.43416 33081 ft 424 kts 62°
2026-05-07 01:53 9.51595 -70.38120 33103 ft 424 kts 62°
2026-05-07 01:53 9.54321 -70.32806 33096 ft 424 kts 62°
2026-05-07 01:54 9.57026 -70.27534 33064 ft 423 kts 62°
2026-05-07 01:54 9.59750 -70.22227 33073 ft 425 kts 62°
2026-05-07 01:55 9.62490 -70.16892 33072 ft 427 kts 62°
2026-05-07 01:55 9.65215 -70.11573 33085 ft 428 kts 62°
2026-05-07 01:56 9.67964 -70.06207 33076 ft 428 kts 62°
2026-05-07 01:56 9.70710 -70.00844 33086 ft 428 kts 62°
2026-05-07 01:57 9.73454 -69.95489 33074 ft 427 kts 62°
2026-05-07 01:57 9.76171 -69.90177 33067 ft 426 kts 62°
2026-05-07 01:58 9.78904 -69.84836 33066 ft 426 kts 62°
2026-05-07 01:58 9.81635 -69.79493 33059 ft 427 kts 62°
2026-05-07 01:59 9.84365 -69.74147 33069 ft 427 kts 62°
2026-05-07 01:59 9.87097 -69.68799 33063 ft 427 kts 62°
2026-05-07 02:00 9.89813 -69.63477 33056 ft 427 kts 62°
2026-05-07 02:00 9.92549 -69.58119 33054 ft 427 kts 62°
2026-05-07 02:01 9.95284 -69.52756 33054 ft 428 kts 62°
2026-05-07 02:01 9.98022 -69.47384 33047 ft 428 kts 62°
2026-05-07 02:02 10.00758 -69.42015 33047 ft 428 kts 62°
2026-05-07 02:02 10.03473 -69.36684 33041 ft 428 kts 62°
2026-05-07 02:03 10.05683 -69.31051 33060 ft 430 kts 70°
2026-05-07 02:03 10.07676 -69.25324 33036 ft 430 kts 70°
2026-05-07 02:04 10.09669 -69.19601 33046 ft 430 kts 70°
2026-05-07 02:04 10.11662 -69.13877 33040 ft 430 kts 70°
2026-05-07 02:05 10.13645 -69.08182 33046 ft 430 kts 70°
2026-05-07 02:05 10.15639 -69.02452 33042 ft 430 kts 70°
2026-05-07 02:06 10.17634 -68.96716 33046 ft 430 kts 70°
2026-05-07 02:06 10.19631 -68.90970 33046 ft 431 kts 70°
2026-05-07 02:07 10.21614 -68.85262 33044 ft 431 kts 70°
2026-05-07 02:07 10.24608 -68.76635 33048 ft 431 kts 70°
2026-05-07 02:08 10.26600 -68.70889 33050 ft 431 kts 70°
2026-05-07 02:08 10.28596 -68.65134 33047 ft 432 kts 70°
2026-05-07 02:09 10.30575 -68.59420 33051 ft 432 kts 70°
2026-05-07 02:09 10.32580 -68.53662 33043 ft 432 kts 69°
2026-05-07 02:10 10.34590 -68.47907 33039 ft 432 kts 69°
2026-05-07 02:10 10.35588 -68.45024 32833 ft 436 kts 70°
2026-05-07 02:10 10.36617 -68.42057 31605 ft 452 kts 69°
2026-05-07 02:11 10.37669 -68.39008 30419 ft 461 kts 69°
2026-05-07 02:11 10.38739 -68.35898 29080 ft 469 kts 69°
2026-05-07 02:11 10.39823 -68.32749 27715 ft 474 kts 69°
2026-05-07 02:11 10.40902 -68.29613 26362 ft 477 kts 69°
2026-05-07 02:12 10.41976 -68.26486 24940 ft 463 kts 69°
2026-05-07 02:12 10.43025 -68.23435 23560 ft 451 kts 69°
2026-05-07 02:12 10.44017 -68.20542 23037 ft 415 kts 69°
2026-05-07 02:12 10.44935 -68.17866 22466 ft 387 kts 69°
2026-05-07 02:13 10.45800 -68.15348 21987 ft 370 kts 69°
2026-05-07 02:13 10.46651 -68.12879 21562 ft 370 kts 69°
2026-05-07 02:13 10.47498 -68.10419 21087 ft 366 kts 69°
2026-05-07 02:13 10.48333 -68.07993 20593 ft 360 kts 69°
2026-05-07 02:14 10.49039 -68.05569 20136 ft 355 kts 75°
2026-05-07 02:14 10.49570 -68.03145 19656 ft 349 kts 75°
2026-05-07 02:14 10.50115 -68.00767 19200 ft 342 kts 74°
2026-05-07 02:14 10.50653 -67.98436 18751 ft 336 kts 74°
2026-05-07 02:15 10.51180 -67.96173 18312 ft 330 kts 74°
2026-05-07 02:15 10.51708 -67.93922 17853 ft 324 kts 74°
2026-05-07 02:15 10.52227 -67.91716 17451 ft 319 kts 74°
2026-05-07 02:15 10.52744 -67.89530 17028 ft 318 kts 75°
2026-05-07 02:16 10.53259 -67.87346 16606 ft 317 kts 75°
2026-05-07 02:16 10.53775 -67.85161 16187 ft 317 kts 75°
2026-05-07 02:16 10.54290 -67.82982 15763 ft 316 kts 75°
2026-05-07 02:16 10.54803 -67.80810 15345 ft 314 kts 76°
2026-05-07 02:17 10.55307 -67.78684 14932 ft 313 kts 76°
2026-05-07 02:17 10.55813 -67.76542 14524 ft 311 kts 76°
2026-05-07 02:17 10.56315 -67.74420 14114 ft 305 kts 77°
2026-05-07 02:17 10.56807 -67.72341 13690 ft 300 kts 77°
2026-05-07 02:18 10.57291 -67.70297 13294 ft 294 kts 77°
2026-05-07 02:18 10.57764 -67.68297 12920 ft 289 kts 77°
2026-05-07 02:18 10.58213 -67.66318 12537 ft 286 kts 82°
2026-05-07 02:18 10.58328 -67.64313 12183 ft 284 kts 91°
2026-05-07 02:19 10.58353 -67.62296 11796 ft 286 kts 90°
2026-05-07 02:19 10.58402 -67.60299 11426 ft 286 kts 90°
2026-05-07 02:19 10.58457 -67.58272 11050 ft 287 kts 90°
2026-05-07 02:19 10.58518 -67.56246 10659 ft 287 kts 90°
2026-05-07 02:20 10.58582 -67.54218 10283 ft 287 kts 90°
2026-05-07 02:20 10.58648 -67.52191 9902 ft 286 kts 90°
2026-05-07 02:20 10.58715 -67.50170 9505 ft 285 kts 90°
2026-05-07 02:20 10.58783 -67.48166 9145 ft 283 kts 90°
2026-05-07 02:21 10.58851 -67.46197 8777 ft 282 kts 90°
2026-05-07 02:21 10.58920 -67.44208 8409 ft 281 kts 90°
2026-05-07 02:21 10.58989 -67.42222 8032 ft 281 kts 90°
2026-05-07 02:21 10.59058 -67.40243 7676 ft 280 kts 90°
2026-05-07 02:22 10.59128 -67.38265 7296 ft 279 kts 90°
2026-05-07 02:22 10.59197 -67.36302 6914 ft 277 kts 90°
2026-05-07 02:22 10.59265 -67.34352 6541 ft 272 kts 90°
2026-05-07 02:22 10.59334 -67.32476 6149 ft 258 kts 90°
2026-05-07 02:23 10.59397 -67.30707 5816 ft 244 kts 90°
2026-05-07 02:23 10.59456 -67.29001 5549 ft 238 kts 90°
2026-05-07 02:23 10.59522 -67.27365 5354 ft 225 kts 91°
2026-05-07 02:23 10.59575 -67.25808 5122 ft 215 kts 91°
2026-05-07 02:24 10.59624 -67.24316 4875 ft 208 kts 90°
2026-05-07 02:24 10.59672 -67.22867 4623 ft 202 kts 90°
2026-05-07 02:24 10.59719 -67.21461 4380 ft 195 kts 89°
2026-05-07 02:24 10.59764 -67.20099 4145 ft 190 kts 90°
2026-05-07 02:25 10.59807 -67.18783 3928 ft 187 kts 90°
2026-05-07 02:25 10.59861 -67.17492 3762 ft 177 kts 89°
2026-05-07 02:25 10.59895 -67.16282 3568 ft 167 kts 91°
2026-05-07 02:25 10.59926 -67.15129 3365 ft 159 kts 90°
2026-05-07 02:26 10.59961 -67.14032 3167 ft 152 kts 90°
2026-05-07 02:26 10.59996 -67.12968 2985 ft 150 kts 90°
2026-05-07 02:26 10.60032 -67.11901 2719 ft 151 kts 90°
2026-05-07 02:26 10.60067 -67.10817 2363 ft 154 kts 89°
2026-05-07 02:27 10.60109 -67.09731 2001 ft 154 kts 89°
2026-05-07 02:27 10.60149 -67.08655 1835 ft 150 kts 89°
2026-05-07 02:27 10.60173 -67.07970 1873 ft 144 kts 89°
2026-05-07 02:27 10.60203 -67.06962 1855 ft 140 kts 90°
2026-05-07 02:28 10.60261 -67.05563 1470 ft 147 kts 88°
2026-05-07 02:28 10.60291 -67.04887 1160 ft 141 kts 89°
2026-05-07 02:28 10.60321 -67.03934 866 ft 126 kts 88°
2026-05-07 02:28 10.60330 -67.03047 628 ft 127 kts 89°
2026-05-07 02:29 10.60355 -67.02153 464 ft 127 kts 88°
2026-05-07 02:29 10.60383 -67.01274 289 ft 124 kts 90°
2026-05-07 02:29 10.60400 -67.00489 229 ft 93 kts 86°
2026-05-07 02:29 10.60422 -66.99995 218 ft 54 kts 79°
2026-05-07 02:30 10.60416 -66.99711 216 ft 29 kts 126°
2026-05-07 02:30 10.60239 -66.99670 203 ft 21 kts 178°
2026-05-07 02:30 10.60144 -66.99709 210 ft 13 kts 250°
2026-05-07 02:30 10.60137 -66.99798 212 ft 13 kts 268°
2026-05-07 02:31 10.60126 -66.99888 216 ft 13 kts 246°
2026-05-07 02:31 10.60041 -66.99915 219 ft 15 kts 179°
2026-05-07 02:31 10.59945 -66.99913 218 ft 13 kts 187°
2026-05-07 02:31 10.59912 -66.99989 219 ft 13 kts 267°
2026-05-07 02:32 10.59906 -67.00066 221 ft 6 kts 244°
2026-05-07 02:32 10.59863 -67.00077 220 ft 5 kts 183°
2026-05-07 02:32 10.59841 -67.00077 220 ft 2 kts 179°
2026-05-07 02:32 10.59833 -67.00077 220 ft 1 kts 179°